TimeEST,TemperatureF,Dew PointF,Humidity,Sea Level PressureIn,VisibilityMPH,Wind Direction,Wind SpeedMPH,Gust SpeedMPH,PrecipitationIn,Events,Conditions,WindDirDegrees,DateUTC
12:15 AM,26.4,25.7,97,30.39,10.0,Calm,Calm,-,N/A,,Clear,0,2013-01-19 05:15:00
12:35 AM,26.6,25.9,97,30.39,10.0,Calm,Calm,-,N/A,,Clear,0,2013-01-19 05:35:00
12:55 AM,25.3,24.4,96,30.38,10.0,East,5.8,-,N/A,,Clear,100,2013-01-19 05:55:00
1:15 AM,24.8,24.4,99,30.37,7.0,ENE,3.5,-,N/A,,Clear,70,2013-01-19 06:15:00
1:35 AM,27.3,26.4,96,30.37,10.0,Calm,Calm,-,N/A,,Clear,0,2013-01-19 06:35:00
1:55 AM,25.5,25.0,98,30.37,10.0,East,3.5,-,N/A,,Clear,90,2013-01-19 06:55:00
2:15 AM,24.1,23.7,99,30.37,10.0,East,9.2,-,N/A,,Clear,100,2013-01-19 07:15:00
2:35 AM,26.6,25.7,96,30.39,10.0,Calm,Calm,-,N/A,,Clear,0,2013-01-19 07:35:00
2:55 AM,25.3,24.6,97,30.38,10.0,Calm,Calm,-,N/A,,Clear,0,2013-01-19 07:55:00
3:15 AM,26.2,25.7,98,30.39,10.0,Calm,Calm,-,N/A,,Clear,0,2013-01-19 08:15:00
3:35 AM,25.5,24.8,97,30.38,10.0,Calm,Calm,-,N/A,,Clear,0,2013-01-19 08:35:00
3:55 AM,23.4,23.2,99,30.37,7.0,Calm,Calm,-,N/A,,Clear,0,2013-01-19 08:55:00
4:15 AM,22.8,22.6,99,30.37,7.0,Calm,Calm,-,N/A,,Clear,0,2013-01-19 09:15:00
4:35 AM,22.3,21.9,99,30.37,7.0,Calm,Calm,-,N/A,,Clear,0,2013-01-19 09:35:00
4:55 AM,23.0,23.0,100,30.36,7.0,Calm,Calm,-,N/A,,Clear,0,2013-01-19 09:55:00
5:15 AM,23.0,23.0,100,30.36,7.0,Calm,Calm,-,N/A,,Clear,0,2013-01-19 10:15:00
5:35 AM,23.7,23.5,99,30.36,7.0,Calm,Calm,-,N/A,,Clear,0,2013-01-19 10:35:00
5:55 AM,23.0,23.0,100,30.36,7.0,Calm,Calm,-,N/A,,Clear,0,2013-01-19 10:55:00
6:15 AM,21.6,21.2,99,30.35,7.0,Calm,Calm,-,N/A,,Clear,0,2013-01-19 11:15:00
6:35 AM,25.0,25.0,100,30.35,10.0,Calm,Calm,-,N/A,,Clear,0,2013-01-19 11:35:00
6:55 AM,24.6,24.6,100,30.35,10.0,ENE,3.5,-,N/A,,Clear,70,2013-01-19 11:55:00
7:50 AM,23.0,23.0,100,30.35,10.0,East,3.5,-,N/A,,Clear,90,2013-01-19 12:50:00
8:15 AM,24.1,24.1,100,30.36,10.0,Calm,Calm,-,N/A,,Clear,0,2013-01-19 13:15:00
8:35 AM,24.6,24.6,100,30.36,10.0,Calm,Calm,-,N/A,,Clear,0,2013-01-19 13:35:00
9:15 AM,28.9,28.9,100,30.36,10.0,Calm,Calm,-,N/A,,Clear,0,2013-01-19 14:15:00
9:55 AM,32.0,29.5,90,30.37,10.0,ESE,5.8,-,N/A,,Clear,120,2013-01-19 14:55:00
11:12 AM,37.4,30.2,75,30.36,10.0,Calm,Calm,-,N/A,,Clear,0,2013-01-19 16:12:00
11:15 AM,37.2,31.6,80,30.36,10.0,Calm,Calm,-,N/A,,Clear,0,2013-01-19 16:15:00
11:35 AM,39.4,31.1,72,30.35,10.0,Calm,Calm,-,N/A,,Clear,0,2013-01-19 16:35:00
12:15 PM,40.5,30.6,68,30.32,10.0,WSW,3.5,-,N/A,,Clear,240,2013-01-19 17:15:00
12:35 PM,41.0,32.0,70,30.31,10.0,SSW,5.8,-,N/A,,Clear,210,2013-01-19 17:35:00
12:55 PM,40.6,31.8,71,30.30,10.0,SW,8.1,-,N/A,,Clear,230,2013-01-19 17:55:00
1:15 PM,41.4,31.8,69,30.28,10.0,West,9.2,-,N/A,,Clear,260,2013-01-19 18:15:00
1:35 PM,41.4,31.8,69,30.27,10.0,WSW,9.2,-,N/A,,Clear,250,2013-01-19 18:35:00
2:15 PM,42.1,32.4,68,30.25,10.0,SW,5.8,-,N/A,,Clear,230,2013-01-19 19:15:00
2:35 PM,42.8,32.4,67,30.24,10.0,West,4.6,-,N/A,,Clear,270,2013-01-19 19:35:00
2:55 PM,43.0,32.5,67,30.23,10.0,SW,4.6,-,N/A,,Clear,220,2013-01-19 19:55:00
3:15 PM,43.3,32.0,64,30.22,10.0,SW,4.6,-,N/A,,Clear,230,2013-01-19 20:15:00
3:35 PM,43.3,32.5,66,30.21,10.0,SW,5.8,-,N/A,,Clear,230,2013-01-19 20:35:00
3:55 PM,43.7,32.0,63,30.20,10.0,West,3.5,-,N/A,,Clear,260,2013-01-19 20:55:00
4:15 PM,44.1,32.0,63,30.19,10.0,SW,5.8,-,N/A,,Clear,230,2013-01-19 21:15:00
4:35 PM,43.2,32.0,65,30.19,10.0,WSW,5.8,-,N/A,,Clear,240,2013-01-19 21:35:00
4:55 PM,43.0,31.6,64,30.19,10.0,WSW,5.8,-,N/A,,Clear,240,2013-01-19 21:55:00
5:15 PM,42.4,31.5,65,30.19,10.0,SW,4.6,-,N/A,,Clear,230,2013-01-19 22:15:00
5:35 PM,41.4,31.3,67,30.18,10.0,SW,5.8,-,N/A,,Clear,230,2013-01-19 22:35:00
5:55 PM,40.1,31.1,70,30.18,10.0,Calm,Calm,-,N/A,,Clear,0,2013-01-19 22:55:00
6:15 PM,39.2,31.1,73,30.18,10.0,Calm,Calm,-,N/A,,Clear,0,2013-01-19 23:15:00
6:35 PM,37.8,30.9,76,30.18,10.0,Calm,Calm,-,N/A,,Clear,0,2013-01-19 23:35:00
7:15 PM,33.8,30.2,87,30.18,10.0,Calm,Calm,-,N/A,,Clear,0,2013-01-20 00:15:00
7:35 PM,34.0,30.6,87,30.18,10.0,Calm,Calm,-,N/A,,Clear,0,2013-01-20 00:35:00
7:55 PM,32.5,30.6,92,30.18,10.0,Calm,Calm,-,N/A,,Clear,0,2013-01-20 00:55:00
8:15 PM,34.0,31.5,90,30.18,10.0,Calm,Calm,-,N/A,,Clear,0,2013-01-20 01:15:00
8:35 PM,32.0,30.2,93,30.18,10.0,Calm,Calm,-,N/A,,Clear,0,2013-01-20 01:35:00
8:55 PM,32.0,30.0,92,30.17,10.0,Calm,Calm,-,N/A,,Clear,0,2013-01-20 01:55:00
9:15 PM,32.2,30.4,93,30.17,10.0,Calm,Calm,-,N/A,,Clear,0,2013-01-20 02:15:00
9:35 PM,32.0,29.8,92,30.16,10.0,Calm,Calm,-,N/A,,Clear,0,2013-01-20 02:35:00
9:55 PM,30.7,28.9,93,30.17,10.0,North,4.6,-,N/A,,Clear,350,2013-01-20 02:55:00
10:15 PM,30.7,29.3,94,30.16,10.0,Calm,Calm,-,N/A,,Clear,0,2013-01-20 03:15:00
10:35 PM,30.0,28.6,94,30.15,10.0,Calm,Calm,-,N/A,,Clear,0,2013-01-20 03:35:00
10:55 PM,30.6,29.3,95,30.15,10.0,Calm,Calm,-,N/A,,Clear,0,2013-01-20 03:55:00
11:15 PM,31.8,30.0,93,30.15,10.0,North,3.5,-,N/A,,Clear,350,2013-01-20 04:15:00
11:35 PM,29.8,28.4,94,30.14,10.0,Calm,Calm,-,N/A,,Clear,0,2013-01-20 04:35:00
11:55 PM,29.8,29.7,99,30.14,7.0,Calm,Calm,-,N/A,,Clear,0,2013-01-20 04:55:00